TimeCST,TemperatureF,Dew PointF,Humidity,Sea Level PressureIn,VisibilityMPH,Wind Direction,Wind SpeedMPH,Gust SpeedMPH,PrecipitationIn,Events,Conditions,WindDirDegrees,DateUTC
12:13 AM,21.2,15.8,80,29.88,10.0,WNW,9.2,17.3,N/A,,Overcast,290,2012-12-07 06:13:00
12:33 AM,21.2,15.8,80,29.88,10.0,WNW,11.5,16.1,N/A,,Overcast,290,2012-12-07 06:33:00
12:53 AM,21.2,15.8,80,29.88,10.0,WNW,10.4,16.1,N/A,,Overcast,290,2012-12-07 06:53:00
1:12 AM,21.2,15.8,80,29.89,10.0,West,10.4,20.7,N/A,,Overcast,270,2012-12-07 07:12:00
1:33 AM,21.2,15.8,80,29.88,10.0,West,13.8,17.3,N/A,,Overcast,270,2012-12-07 07:33:00
1:53 AM,21.2,15.8,80,29.89,10.0,WNW,10.4,16.1,N/A,,Overcast,300,2012-12-07 07:53:00
2:12 AM,19.4,14.0,80,29.91,10.0,West,12.7,18.4,N/A,,Overcast,280,2012-12-07 08:12:00
2:33 AM,19.4,12.2,74,29.91,10.0,WNW,10.4,18.4,N/A,Snow,Light Snow,290,2012-12-07 08:33:00
2:53 AM,19.4,12.2,74,29.92,10.0,West,8.1,19.6,N/A,Snow,Light Snow,270,2012-12-07 08:53:00
3:12 AM,19.4,12.2,74,29.91,10.0,West,8.1,16.1,N/A,Snow,Light Snow,270,2012-12-07 09:12:00
3:33 AM,19.4,12.2,74,29.91,10.0,WNW,9.2,-,N/A,,Overcast,290,2012-12-07 09:33:00
3:53 AM,19.4,12.2,74,29.91,10.0,WNW,8.1,-,N/A,,Overcast,290,2012-12-07 09:53:00
4:13 AM,19.4,12.2,74,29.91,10.0,Calm,Calm,-,N/A,Snow,Light Snow,0,2012-12-07 10:13:00
4:33 AM,19.4,12.2,74,29.91,10.0,West,3.5,-,N/A,,Overcast,270,2012-12-07 10:33:00
4:53 AM,19.4,12.2,74,29.91,10.0,WNW,3.5,-,N/A,,Overcast,300,2012-12-07 10:53:00
5:13 AM,19.4,12.2,74,29.91,10.0,WNW,4.6,-,N/A,Snow,Light Snow,300,2012-12-07 11:13:00
5:33 AM,19.4,12.2,74,29.91,10.0,WNW,8.1,-,N/A,,Overcast,290,2012-12-07 11:33:00
5:52 AM,19.4,14.0,80,29.91,10.0,WNW,5.8,-,N/A,Snow,Light Snow,300,2012-12-07 11:52:00
6:13 AM,19.4,12.2,74,29.91,10.0,WNW,8.1,-,N/A,Snow,Light Snow,290,2012-12-07 12:13:00
6:33 AM,19.4,12.2,74,29.92,10.0,WNW,9.2,-,N/A,,Overcast,290,2012-12-07 12:33:00
6:52 AM,19.4,12.2,74,29.93,10.0,NW,6.9,-,N/A,Snow,Light Snow,310,2012-12-07 12:52:00
7:13 AM,19.4,12.2,74,29.94,10.0,WNW,6.9,-,N/A,Snow,Light Snow,300,2012-12-07 13:13:00
7:33 AM,19.4,14.0,80,29.94,10.0,WNW,5.8,-,N/A,Snow,Light Snow,300,2012-12-07 13:33:00
7:52 AM,19.4,14.0,80,29.94,10.0,WNW,3.5,-,N/A,Snow,Light Snow,300,2012-12-07 13:52:00
8:13 AM,19.4,14.0,80,29.95,7.0,WNW,3.5,-,N/A,Snow,Light Snow,290,2012-12-07 14:13:00
8:33 AM,19.4,12.2,74,29.95,10.0,West,5.8,-,N/A,Snow,Light Snow,280,2012-12-07 14:33:00
8:52 AM,19.4,12.2,74,29.95,7.0,West,3.5,-,N/A,Snow,Light Snow,270,2012-12-07 14:52:00
9:13 AM,19.4,14.0,80,29.96,10.0,NW,3.5,-,N/A,Snow,Light Snow,320,2012-12-07 15:13:00
9:33 AM,19.4,12.2,74,29.95,7.0,West,5.8,-,N/A,Snow,Light Snow,280,2012-12-07 15:33:00
9:52 AM,19.4,12.2,74,29.96,10.0,WNW,8.1,-,N/A,Snow,Light Snow,300,2012-12-07 15:52:00
10:13 AM,19.4,12.2,74,29.97,10.0,WNW,4.6,-,N/A,Snow,Light Snow,300,2012-12-07 16:13:00
10:33 AM,19.4,12.2,74,29.97,10.0,WNW,3.5,-,N/A,,Overcast,300,2012-12-07 16:33:00
10:52 AM,19.4,12.2,74,29.98,10.0,WNW,8.1,-,N/A,,Overcast,300,2012-12-07 16:52:00
11:13 AM,19.4,12.2,74,29.98,10.0,WNW,5.8,-,N/A,,Mostly Cloudy,300,2012-12-07 17:13:00
11:33 AM,19.4,12.2,74,29.97,10.0,WNW,4.6,-,N/A,,Overcast,290,2012-12-07 17:33:00
11:53 AM,21.2,12.2,68,29.97,10.0,WNW,8.1,-,N/A,,Overcast,290,2012-12-07 17:53:00
12:13 PM,19.4,12.2,74,29.97,10.0,West,6.9,-,N/A,,Overcast,280,2012-12-07 18:13:00
12:33 PM,21.2,12.2,68,29.97,10.0,WNW,9.2,-,N/A,,Overcast,300,2012-12-07 18:33:00
12:53 PM,21.2,12.2,68,29.96,10.0,WNW,6.9,-,N/A,,Mostly Cloudy,300,2012-12-07 18:53:00
1:13 PM,19.4,12.2,74,29.96,10.0,NW,8.1,-,N/A,,Scattered Clouds,320,2012-12-07 19:13:00
1:33 PM,19.4,10.4,68,29.96,10.0,WNW,6.9,-,N/A,,Clear,290,2012-12-07 19:33:00
1:53 PM,19.4,10.4,68,29.96,10.0,WNW,6.9,-,N/A,,Clear,300,2012-12-07 19:53:00
2:13 PM,19.4,10.4,68,29.97,10.0,WNW,6.9,-,N/A,,Clear,290,2012-12-07 20:13:00
2:33 PM,19.4,10.4,68,29.97,10.0,NW,6.9,-,N/A,,Clear,310,2012-12-07 20:33:00
2:53 PM,19.4,10.4,68,29.98,10.0,NW,3.5,-,N/A,,Clear,310,2012-12-07 20:53:00
3:13 PM,19.4,10.4,68,29.99,10.0,West,3.5,-,N/A,,Clear,280,2012-12-07 21:13:00
3:33 PM,19.4,10.4,68,29.99,10.0,Calm,Calm,-,N/A,,Clear,0,2012-12-07 21:33:00
3:53 PM,17.6,10.4,73,30.00,10.0,WNW,4.6,-,N/A,,Scattered Clouds,300,2012-12-07 21:53:00
4:13 PM,17.6,10.4,73,30.00,10.0,WNW,4.6,-,N/A,,Mostly Cloudy,300,2012-12-07 22:13:00
4:33 PM,17.6,10.4,73,30.00,10.0,NW,4.6,-,N/A,,Scattered Clouds,310,2012-12-07 22:33:00
4:53 PM,17.6,8.6,68,30.00,10.0,NW,4.6,-,N/A,,Clear,310,2012-12-07 22:53:00
5:13 PM,15.8,8.6,73,30.01,10.0,WNW,4.6,-,N/A,,Clear,300,2012-12-07 23:13:00
5:33 PM,15.8,8.6,73,30.01,10.0,NW,3.5,-,N/A,,Clear,310,2012-12-07 23:33:00
5:53 PM,15.8,8.6,73,30.02,10.0,NW,4.6,-,N/A,,Clear,320,2012-12-07 23:53:00
6:13 PM,14.0,6.8,73,30.02,10.0,NW,3.5,-,N/A,,Clear,320,2012-12-08 00:13:00
6:33 PM,14.0,6.8,73,30.02,10.0,Calm,Calm,-,N/A,,Clear,0,2012-12-08 00:33:00
6:53 PM,12.2,6.8,79,30.02,10.0,Calm,Calm,-,N/A,,Clear,0,2012-12-08 00:53:00
7:13 PM,12.2,6.8,79,30.02,10.0,Calm,Calm,-,N/A,,Clear,0,2012-12-08 01:13:00
7:33 PM,10.4,6.8,85,30.02,10.0,Calm,Calm,-,N/A,,Clear,0,2012-12-08 01:33:00
7:53 PM,10.4,6.8,85,30.02,10.0,Calm,Calm,-,N/A,,Clear,0,2012-12-08 01:53:00
8:13 PM,8.6,6.8,92,30.02,10.0,Calm,Calm,-,N/A,,Clear,0,2012-12-08 02:13:00
8:32 PM,8.6,6.8,92,30.02,10.0,Calm,Calm,-,N/A,,Clear,0,2012-12-08 02:32:00
8:53 PM,8.6,5.0,85,30.02,10.0,Calm,Calm,-,N/A,,Clear,0,2012-12-08 02:53:00
9:13 PM,6.8,3.2,85,30.02,10.0,Calm,Calm,-,N/A,,Clear,0,2012-12-08 03:13:00
9:32 PM,6.8,3.2,85,30.02,10.0,Calm,Calm,-,N/A,,Clear,0,2012-12-08 03:32:00
9:53 PM,6.8,3.2,85,30.01,10.0,Calm,Calm,-,N/A,,Clear,0,2012-12-08 03:53:00
10:13 PM,5.0,1.4,85,30.01,10.0,Calm,Calm,-,N/A,,Clear,0,2012-12-08 04:13:00
10:32 PM,5.0,3.2,92,30.02,10.0,Calm,Calm,-,N/A,,Clear,0,2012-12-08 04:32:00
10:53 PM,3.2,1.4,92,30.02,10.0,Calm,Calm,-,N/A,,Clear,0,2012-12-08 04:53:00
11:13 PM,3.2,1.4,92,30.02,10.0,Calm,Calm,-,N/A,,Clear,0,2012-12-08 05:13:00
11:32 PM,3.2,1.4,92,30.02,10.0,Calm,Calm,-,N/A,,Clear,0,2012-12-08 05:32:00
11:53 PM,1.4,-0.4,92,30.02,10.0,Calm,Calm,-,N/A,,Clear,0,2012-12-08 05:53:00